Regional Weather Roundup
Issued by NWS

Home | Current Version | Previous Version | Text Only | Print | Product List | Glossary Off
Versions: 1 2 3 4 5 6 7 8 9 10 11 12 13 14 15 16 17 18 19 20 21 22 23 24 25 26 27 28

000
ASUS45 KCYS 210110
RWRWY

WYOMING REGIONAL WEATHER ROUNDUP
NATIONAL WEATHER SERVICE CHEYENNE WY
700 PM MDT SUN AUG 20 2017

NOTE:  "FAIR" INDICATES FEW OR NO CLOUDS BELOW 12,000 FEET
WITH NO SIGNIFICANT WEATHER AND/OR OBSTRUCTIONS TO VISIBILITY.

WYZ001-210200-
YELLOWSTONE NATIONAL PARK

CITY           SKY/WX    TMP DP  RH WIND       PRES   REMARKS
LK YELLOWSTONE   N/A     66  29  24 W5        30.24S
W YELLOWSTONE  NOT AVBL

$$
WYZ002>013-054>058-071-098>099-210200-
NORTHERN WYOMING

CITY           SKY/WX    TMP DP  RH WIND       PRES   REMARKS
JACKSON        FAIR      75  24  15 W12G18    30.13F
CODY           FAIR      73  41  31 N12       30.06R
GREYBULL       FAIR      85  36  17 NW14      29.92R
WORLAND        FAIR      84  37  18 N8        29.92S
SHERIDAN       FAIR      81  42  25 NW9       29.97R
BUFFALO        FAIR      79  37  22 NW17G23   30.02R
GILLETTE       FAIR      86  32  14 N14       29.93R
HULETT         FAIR      77  46  33 E9        29.97R
NEWCASTLE      FAIR      79  45  29 SE17G31   29.98S

$$
WYZ014>020-022>026-101>103-210200-
CENTRAL WYOMING

CITY           SKY/WX    TMP DP  RH WIND       PRES   REMARKS
BIG PINEY      FAIR      77  32  19 NW14      30.17S
PINEDALE       FAIR      75  27  16 NW16G24   30.19S
DUBOIS         FAIR      72  19  14 NW15G26   30.16R
LANDER           N/A    N/A N/A N/A MISG      30.01S
RIVERTON       FAIR      84  27  12 NW14G22   30.00R
CASPER         FAIR      81  34  18 S13G25    30.01R
DOUGLAS        FAIR      80  47  31 SE15      30.00S

$$
WYZ021-027>030-104>119-210200-
SOUTHERN WYOMING

CITY           SKY/WX    TMP DP  RH WIND       PRES   REMARKS
EVANSTON       FAIR      79  30  16 W15       30.19S
KEMMERER         N/A     77  27  15 NW14G23   30.20S
FORT BRIDGER   MOCLDY    74  38  27 SE9       30.21F
ROCK SPRINGS   FAIR      75  33  21 SW17      30.16F
RAWLINS        FAIR      78  30  17 W8        30.15F
SARATOGA       FAIR      73  34  23 S3        30.19R
LARAMIE        FAIR      69  40  34 S13       30.20S
CHEYENNE       FAIR      78  41  26 S13       30.14F
TORRINGTON     FAIR      81  56  42 SE12      29.98S
PINE BLUFFS    FAIR      77  50  38 S5        30.09R

$$




USA.gov is the U.S. government's official web portal to all federal, state and local government web resources and services.